Previsão horária em A dos Cunhados

Hoje, 30 Setembro, Quarta-feira

Tempo Temperatura Precipitação Vento Pressão Humidade
00:00 +15°C° 0 mm 5 m/s 754 mmHg 89%
01:00 +15°C° 0 mm 5 m/s 754 mmHg 91%
02:00 +15°C° 0 mm 5 m/s 754 mmHg 94%
03:00 +15°C° 0 mm 5 m/s 754 mmHg 94%
04:00 +15°C° 0 mm 5 m/s 754 mmHg 94%
05:00 +15°C° 0 mm 5 m/s 754 mmHg 95%
06:00 +17°C° 0 mm 5 m/s 754 mmHg 86%
07:00 +19°C° 0 mm 6 m/s 755 mmHg 77%
08:00 +20°C° 0 mm 6 m/s 755 mmHg 69%
09:00 +21°C° 0 mm 6 m/s 755 mmHg 64%
10:00 +22°C° 0 mm 7 m/s 755 mmHg 59%
11:00 +23°C° 0 mm 7 m/s 755 mmHg 54%
12:00 +23°C° 0 mm 7 m/s 754 mmHg 56%
13:00 +22°C° 0 mm 7 m/s 754 mmHg 58%
14:00 +22°C° 0 mm 7 m/s 754 mmHg 60%
15:00 +20°C° 0 mm 7 m/s 754 mmHg 65%
16:00 +19°C° 0 mm 6 m/s 754 mmHg 70%
17:00 +17°C° 0 mm 6 m/s 754 mmHg 75%
18:00 +16°C° 0 mm 6 m/s 754 mmHg 78%
19:00 +16°C° 0 mm 5 m/s 755 mmHg 81%
20:00 +15°C° 0 mm 5 m/s 755 mmHg 84%
21:00 +15°C° 0 mm 5 m/s 755 mmHg 85%
22:00 +15°C° 0 mm 4 m/s 755 mmHg 87%
23:00 +15°C° 0 mm 4 m/s 754 mmHg 88%

Amanhã, 1 Outubro, Quinta-feira

Tempo Temperatura Precipitação Vento Pressão Humidade
00:00 +17°C° 0 mm 4 m/s 754 mmHg 85%
01:00 +17°C° 0 mm 4 m/s 754 mmHg 82%
02:00 +18°C° 0 mm 4 m/s 753 mmHg 79%
03:00 +18°C° 0 mm 4 m/s 753 mmHg 82%
04:00 +18°C° 0 mm 3 m/s 753 mmHg 86%
05:00 +17°C° 0 mm 3 m/s 753 mmHg 90%
06:00 +19°C° 0.1 mm 4 m/s 753 mmHg 87%
07:00 +20°C° 0.1 mm 4 m/s 753 mmHg 83%
08:00 +21°C° 0.1 mm 5 m/s 753 mmHg 79%
09:00 +22°C° 0.1 mm 5 m/s 753 mmHg 73%
10:00 +23°C° 0.1 mm 5 m/s 753 mmHg 67%
11:00 +25°C° 0.1 mm 5 m/s 753 mmHg 61%
12:00 +23°C° 0.1 mm 5 m/s 752 mmHg 62%
13:00 +23°C° 0.1 mm 5 m/s 752 mmHg 63%
14:00 +22°C° 0.1 mm 6 m/s 752 mmHg 64%
15:00 +21°C° 0 mm 6 m/s 751 mmHg 69%
16:00 +20°C° 0 mm 6 m/s 751 mmHg 74%
17:00 +19°C° 0 mm 6 m/s 751 mmHg 79%
18:00 +17°C° 0 mm 6 m/s 751 mmHg 81%
19:00 +16°C° 0 mm 5 m/s 751 mmHg 83%
20:00 +16°C° 0 mm 5 m/s 752 mmHg 84%
21:00 +16°C° 0 mm 5 m/s 751 mmHg 82%
22:00 +16°C° 0 mm 5 m/s 751 mmHg 80%
23:00 +16°C° 0 mm 6 m/s 750 mmHg 79%

Depois de amanhã, 2 Outubro, Sexta-feira

Tempo Temperatura Precipitação Vento Pressão Humidade
00:00 +17°C° 0 mm 6 m/s 749 mmHg 79%
01:00 +17°C° 0 mm 7 m/s 749 mmHg 80%
02:00 +18°C° 0 mm 7 m/s 748 mmHg 81%
03:00 +18°C° 0.3 mm 8 m/s 747 mmHg 82%
04:00 +18°C° 0.3 mm 8 m/s 747 mmHg 83%
05:00 +18°C° 0.3 mm 8 m/s 746 mmHg 84%
06:00 +18°C° 0.3 mm 9 m/s 746 mmHg 84%
07:00 +18°C° 0.3 mm 9 m/s 746 mmHg 85%
08:00 +18°C° 0.3 mm 9 m/s 746 mmHg 85%
09:00 +19°C° 0.1 mm 10 m/s 746 mmHg 77%
10:00 +19°C° 0.1 mm 10 m/s 746 mmHg 69%
11:00 +21°C° 0.1 mm 10 m/s 747 mmHg 61%
12:00 +19°C° 0.2 mm 10 m/s 747 mmHg 62%
13:00 +18°C° 0.2 mm 10 m/s 747 mmHg 63%
14:00 +17°C° 0.2 mm 10 m/s 747 mmHg 64%
15:00 +16°C° 0 mm 9 m/s 747 mmHg 63%
16:00 +16°C° 0 mm 9 m/s 747 mmHg 61%
17:00 +15°C° 0 mm 8 m/s 748 mmHg 59%
18:00 +15°C° 0.1 mm 7 m/s 748 mmHg 63%
19:00 +14°C° 0.1 mm 7 m/s 749 mmHg 67%
20:00 +14°C° 0.1 mm 6 m/s 750 mmHg 71%
21:00 +13°C° 0.1 mm 6 m/s 750 mmHg 73%
22:00 +13°C° 0.1 mm 5 m/s 750 mmHg 75%
23:00 +13°C° 0.1 mm 5 m/s 750 mmHg 77%

3 Outubro, Sábado

Tempo Temperatura Precipitação Vento Pressão Humidade
00:00 +12°C° 0 mm 4 m/s 750 mmHg 78%
01:00 +12°C° 0 mm 4 m/s 750 mmHg 79%
02:00 +12°C° 0 mm 4 m/s 750 mmHg 80%
03:00 +12°C° 0.1 mm 4 m/s 750 mmHg 80%
04:00 +12°C° 0.1 mm 3 m/s 750 mmHg 80%
05:00 +12°C° 0.1 mm 3 m/s 750 mmHg 80%
06:00 +13°C° 0 mm 4 m/s 751 mmHg 73%
07:00 +15°C° 0 mm 4 m/s 751 mmHg 66%
08:00 +17°C° 0 mm 4 m/s 751 mmHg 58%
09:00 +18°C° 0 mm 4 m/s 751 mmHg 53%
10:00 +19°C° 0 mm 4 m/s 751 mmHg 48%
11:00 +20°C° 0 mm 4 m/s 751 mmHg 43%
12:00 +20°C° 0 mm 4 m/s 751 mmHg 44%
13:00 +20°C° 0 mm 4 m/s 751 mmHg 46%
14:00 +20°C° 0 mm 4 m/s 750 mmHg 47%
15:00 +19°C° 0 mm 4 m/s 750 mmHg 55%
16:00 +18°C° 0 mm 4 m/s 750 mmHg 62%
17:00 +17°C° 0 mm 4 m/s 750 mmHg 70%
18:00 +15°C° 0 mm 4 m/s 750 mmHg 73%
19:00 +14°C° 0 mm 3 m/s 750 mmHg 75%
20:00 +14°C° 0 mm 3 m/s 750 mmHg 78%
21:00 +14°C° 0 mm 4 m/s 750 mmHg 80%
22:00 +14°C° 0 mm 4 m/s 750 mmHg 82%
23:00 +14°C° 0 mm 5 m/s 750 mmHg 84%

4 Outubro, Domingo

Tempo Temperatura Precipitação Vento Pressão Humidade
00:00 +15°C° 0.2 mm 5 m/s 749 mmHg 86%
01:00 +16°C° 0.2 mm 6 m/s 749 mmHg 88%
02:00 +17°C° 0.2 mm 6 m/s 749 mmHg 89%
03:00 +16°C° 0.1 mm 6 m/s 749 mmHg 88%
04:00 +16°C° 0.1 mm 6 m/s 749 mmHg 87%
05:00 +15°C° 0.1 mm 6 m/s 750 mmHg 86%
06:00 +16°C° 0 mm 6 m/s 750 mmHg 78%
07:00 +17°C° 0 mm 7 m/s 751 mmHg 69%
08:00 +17°C° 0 mm 7 m/s 751 mmHg 61%
09:00 +18°C° 0 mm 7 m/s 751 mmHg 56%
10:00 +20°C° 0 mm 6 m/s 752 mmHg 52%
11:00 +21°C° 0 mm 6 m/s 752 mmHg 48%
12:00 +21°C° 0 mm 7 m/s 752 mmHg 49%
13:00 +21°C° 0 mm 7 m/s 752 mmHg 50%
14:00 +21°C° 0 mm 7 m/s 752 mmHg 51%
15:00 +20°C° 0 mm 7 m/s 752 mmHg 55%
16:00 +18°C° 0 mm 7 m/s 752 mmHg 60%
17:00 +17°C° 0 mm 6 m/s 753 mmHg 64%
18:00 +16°C° 0 mm 6 m/s 753 mmHg 68%
19:00 +16°C° 0 mm 6 m/s 753 mmHg 72%
20:00 +15°C° 0 mm 6 m/s 754 mmHg 76%
21:00 +15°C° 0 mm 6 m/s 754 mmHg 76%
22:00 +15°C° 0 mm 6 m/s 754 mmHg 76%
23:00 +15°C° 0 mm 6 m/s 754 mmHg 75%

5 Outubro, Segunda-feira

Tempo Temperatura Precipitação Vento Pressão Humidade
00:00 +15°C° 0.1 mm 6 m/s 754 mmHg 76%
01:00 +15°C° 0.1 mm 6 m/s 753 mmHg 76%
02:00 +15°C° 0.1 mm 6 m/s 753 mmHg 76%
03:00 +15°C° 0 mm 6 m/s 753 mmHg 76%
04:00 +15°C° 0 mm 5 m/s 754 mmHg 76%
05:00 +15°C° 0 mm 5 m/s 754 mmHg 76%
06:00 +16°C° 0 mm 6 m/s 754 mmHg 70%
07:00 +17°C° 0 mm 6 m/s 754 mmHg 65%
08:00 +19°C° 0 mm 6 m/s 754 mmHg 59%
09:00 +20°C° 0 mm 6 m/s 755 mmHg 56%
10:00 +20°C° 0 mm 6 m/s 755 mmHg 52%
11:00 +21°C° 0 mm 6 m/s 755 mmHg 49%
12:00 +21°C° 0 mm 6 m/s 755 mmHg 51%
13:00 +21°C° 0 mm 6 m/s 755 mmHg 53%
14:00 +20°C° 0 mm 6 m/s 755 mmHg 55%
15:00 +19°C° 0 mm 6 m/s 755 mmHg 61%
16:00 +17°C° 0 mm 6 m/s 755 mmHg 66%
17:00 +16°C° 0 mm 5 m/s 755 mmHg 71%
18:00 +16°C° 0 mm 5 m/s 755 mmHg 75%
19:00 +15°C° 0 mm 5 m/s 755 mmHg 80%
20:00 +14°C° 0 mm 4 m/s 756 mmHg 84%
21:00 +14°C° 0 mm 4 m/s 756 mmHg 84%
22:00 +14°C° 0 mm 4 m/s 756 mmHg 84%
23:00 +14°C° 0 mm 3 m/s 756 mmHg 84%
Mostrar mais